Flag for U.S.A. Weather past 2 weeks in Rockford, Illinois, U.S.A.

Now
80 °F

Partly sunny.


Feels Like: 84 °F
Forecast: 67 / 82 °F
Wind: 7 mph from South

Location: Greater Rockford Airport

Current Time: Jul 28, 2015 at 9:58:04 PM

Latest Report: Jul 28, 2015 at 8:54 PM


Visibility: 10 mi

Pressure: 29.92 "Hg

Humidity: 76%

Dew point: 72 °F

Location of RockfordLocation

Historic Weather in Rockford — Graph

°F

Rockford temperature yesterday

Maximum temperature yesterday: 89 °F (at 1:54 PM)
Minimum temperature yesterday: 66 °F (at 5:54 AM)
Average temperature yesterday: 77 °F

Past Weeks' High & Low Weather Summary

 TemperatureHumidityPressure
High91 °F (Jul 17, 2:54 PM)94% (Jul 16, 11:54 PM)30.06 "Hg (Jul 16, 11:54 PM)
Low57 °F (Jul 15, 4:54 AM)39% (Jul 21, 2:54 PM)29.56 "Hg (Jul 13, 7:54 PM)
Average75 °F71%29.91 "Hg
* Reported Jul 13 7:54 PM — Jul 28 7:54 PM, Rockford, Weather by CustomWeather, © 2015

Note: Actual official high and low records may vary slightly from our data, if they occured in-between our weather recording intervals... More about our weather records

Advertising

Rockford weather history for previous 24 hours

 ConditionsComfort  
Time TempWeatherWind HumidityBarometerVisibility
7:54 PM
Tue, Jul 28
81 °FPartly sunny.5 mph74%29.93 "Hg10 mi
6:54 PM83 °FPartly sunny.7 mph72%29.91 "Hg10 mi
5:54 PM85 °FMostly cloudy.9 mph70%29.92 "Hg10 mi
4:54 PM85 °FMostly cloudy.10 mph70%29.90 "Hg10 mi
3:54 PM84 °FMostly cloudy.9 mph70%29.89 "Hg10 mi
2:54 PM86 °FPartly sunny.15 mph65%29.85 "Hg10 mi
1:54 PM85 °FMostly cloudy.8 mph68%29.96 "Hg10 mi
12:54 PM84 °FCloudy.9 mph65%29.99 "Hg10 mi
11:54 AM85 °FBroken clouds.8 mph65%29.97 "Hg10 mi
10:54 AM83 °FPartly sunny.7 mph68%29.99 "Hg10 mi
9:54 AM79 °FPartly sunny.5 mph69%30.00 "Hg10 mi
8:54 AM77 °FPartly sunny.10 mph69%29.97 "Hg10 mi
7:54 AM74 °FScattered clouds.8 mph74%29.99 "Hg10 mi
6:54 AM71 °FPassing clouds.9 mph78%29.98 "Hg10 mi
5:54 AM69 °FPassing clouds.6 mph81%29.98 "Hg10 mi
4:54 AM69 °FPassing clouds.5 mph81%29.98 "Hg10 mi
3:54 AM69 °FPassing clouds.6 mph81%29.98 "Hg10 mi
2:54 AM70 °FPassing clouds.5 mph79%29.99 "Hg10 mi
1:54 AM71 °FPassing clouds.7 mph76%29.99 "Hg10 mi
12:54 AM71 °FPassing clouds.5 mph76%30.00 "Hg10 mi
11:54 PM
Mon, Jul 27
72 °FPassing clouds.6 mph73%29.98 "Hg10 mi
10:54 PM74 °FPassing clouds.7 mph71%29.99 "Hg10 mi
9:54 PM75 °FPassing clouds.8 mph69%30.00 "Hg10 mi
Weather by CustomWeather, © 2015

See weather overviewHow to use our weather pages